Regional Weather Roundup
Issued by NWS

Home | Current Version | Previous Version | Graphics & Text | Print | Product List | Glossary On
Versions: 1 2 3 4 5 6 7 8 9 10 11 12 13 14 15 16 17 18 19 20 21 22 23 24 25 26 27 28 29 30 31 32 33 34 35 36 37 38 39 40 41 42 43 44 45 46 47 48 49 50
110
ASUS43 KDMX 222106
RWRIA

WEATHER ROUNDUP FOR IOWA
NATIONAL WEATHER SERVICE DES MOINES IA
400 PM CDT SUN APR 22 2018

NOTE: "FAIR" INDICATES FEW OR NO CLOUDS BELOW 12,000 FEET WITH NO
SIGNIFICANT WEATHER AND/OR OBSTRUCTIONS TO VISIBILITY.

* - THESE STATIONS ARE NOT NWS STATIONS...THUS NOT UNDER NWS
QUALITY CONTROL.  THEY ALSO DO NOT REPORT WEATHER SUCH
AS PRECIPITATION OR FOG.

IAZ001>003-012>014-020>022-031>034-043>046-222200-
   NORTHWEST IOWA

CITY           SKY/WX    TMP DP  RH WIND       PRES   REMARKS
CARROLL *      CLOUDY    66  27  22 E14       30.19F
CHEROKEE *     SUNNY     61  39  44 NE14      30.23F
DENISON *      MOSUNNY   64  30  27 E10       30.20F
ORANGE CITY *  SUNNY     61  39  44 E8G16     30.23F
SIOUX CITY     SUNNY     66  30  26 E9G18     30.18F
SPENCER        SUNNY     58  40  51 NE13      30.26F
$$

IAZ055>058-069>071-079>083-090>094-222200-
   SOUTHWEST IOWA

CITY           SKY/WX    TMP DP  RH WIND       PRES   REMARKS
AUDUBON *      MOSUNNY   66  27  22 E6        30.19F
CLARINDA *     CLOUDY    70  34  26 E10       30.14F
COUNCIL BLFS * CLOUDY    66  34  30 NE15      30.15F
HARLAN  *      CLOUDY    66  30  26 E12G17    30.20F
LAMONI         SUNNY     69  38  32 E12G20    30.11F
SHENANDOAH *   CLOUDY    70  34  26 NE10G16   30.12F
$$

IAZ047>049-059>061-072>074-084-222200-
   CENTRAL IOWA

CITY           SKY/WX    TMP DP  RH WIND       PRES   REMARKS
AMES           CLOUDY    65  25  22 E12G20    30.19F
BOONE *        MOSUNNY   66  21  18 E15G22    30.18F
CHARITON *     SUNNY     68  34  28 E15       30.13F
DES MOINES     MOSUNNY   72  30  21 E14G22    30.16F
GRINNELL*      CLOUDY    67  19  15 E16G22    30.19F
MARSHALLTOWN   SUNNY     68  27  21 E22G28    30.18F
NEWTON *       MOSUNNY   66  23  19 NE14G22   30.18F
PELLA *        SUNNY     70  24  17 E9G20     30.16F
PERRY *        PTSUNNY   65  17  16 NE14      30.18S
$$

IAZ004>006-015-016-023>025-035-036-222200-
   NORTH CENTRAL IOWA

CITY           SKY/WX    TMP DP  RH WIND       PRES   REMARKS
ALGONA *       SUNNY     59  41  51 E12       30.25F
ESTHERVILLE    SUNNY     47  38  71 NE8       30.27F
FORT DODGE *   SUNNY     65  34  31 E14       30.21F
MASON CITY     SUNNY     61  39  44 E14       30.25F
WEBSTER CITY * MOSUNNY   64  30  27 E10G20    30.19F
IOWA FALLS *   FAIR      67  31  26 E17       30.21F
$$

IAZ007>011-017>019-026>030-037>042-050>054-066-222200-
   NORTHEAST IOWA

CITY           SKY/WX    TMP DP  RH WIND       PRES   REMARKS
CEDAR RAPIDS   FAIR      67  29  24 E16       30.19F
CHARLES CITY * FAIR      63  30  29 E8G17     30.24F
CLINTON *      FAIR      64  30  27 E14       30.21F
DECORAH *      FAIR      61  30  31 E14       30.25F
DUBUQUE        FAIR      64  31  28 NE13G22   30.23F
MONTICELLO *   FAIR      66  32  28 E10G20    30.21F
OELWEIN *      FAIR      64  32  29 E8G20     30.23F
WATERLOO       FAIR      65  32  29 E8G22     30.21F
$$

IAZ064-065-067-068-078-222200-
   EAST CENTRAL IOWA

CITY           SKY/WX    TMP DP  RH WIND       PRES   REMARKS
DAVENPORT      FAIR      66  27  23 E20       30.21F
IOWA CITY      FAIR      68  27  21 E12G22    30.20F
MT. PLEASANT * CLOUDY    68  25  19 E15       30.15F
QUAD CITIES    FAIR      66  29  24 E16       30.19F
$$

IAZ062-063-075>077-085>089-095>099-222200-
   SOUTHEAST IOWA

CITY           SKY/WX    TMP DP  RH WIND       PRES   REMARKS
BURLINGTON     CLOUDY    66  26  22 NE16G22   30.14F
FORT MADISON * CLOUDY    66  30  26 E15       30.15F
KEOKUK *       CLOUDY    64  32  29 E15G23    30.12F
OSKALOOSA *    FAIR      70  26  19 E15G23    30.15F
OTTUMWA        SUNNY     70  27  20 E15       30.14F
WASHINGTON *   SUNNY     70  21  16 E20       30.17F
$$

ABBREVIATIONS USED IN REMARKS
   TC - TEMPERATURES IN CELSIUS
  WCI - WIND CHILL INDEX
   HX - HEAT INDEX
  VSB - VISIBILITY
$$





USA.gov is the U.S. government's official web portal to all federal, state and local government web resources and services.